User: anonymous
Location: Norwich
(52.6280°N, 1.3030°E)
Time: 00:37:17
(UTC+01:00)
Language:

Meteor 1-22 Rocket - Orbit

View from above orbital plane
View from above orbital plane
View from above satellite
View from above satellite

Ground track
Ground track

The orbit data is extracted from the following two-line orbital elements,

1 08294U 75087B   14202.83300894 -.00000007  00000-0 -11247-4 0   218
2 08294 081.2235 336.9382 0107918 156.1398 313.9138 14.08504380995441
Epoch (UTC): 21 July 2014 19:59:31
Eccentricity: 0.0107918
inclination: 81.2235°
perigee height: 786 km
apogee height: 942 km
right ascension of ascending node: 336.9382°
argument of perigee: 156.1398°
revolutions per day: 14.08504380
mean anomaly at epoch: 313.9138°
orbit number at epoch: 99544

The dashed part of the orbit path shows where the satellite is in the earth's shadow,  

DLR